Regional Weather Roundup
Issued by NWS

Home | Current Version | Previous Version | Text Only | Print | Product List | Glossary On
Versions: 1 2 3 4 5 6 7 8 9 10 11 12 13 14 15 16 17 18 19 20 21 22 23 24 25 26 27 28 29 30 31 32 33 34 35 36 37 38 39 40 41 42 43 44 45 46 47 48 49 50
000
ASUS46 KLOX 272312
RWRCA

SOUTHERN CALIFORNIA WEATHER ROUNDUP
NATIONAL WEATHER SERVICE OXNARD CALIFORNIA
300 PM PST TUE JAN 27 2015

NOTE: "FAIR" INDICATES FEW OR NO CLOUDS BELOW 12,000 FEET WITH NO
SIGNIFICANT WEATHER AND/OR OBSTRUCTIONS TO VISIBILITY.

  -  STATIONS PRECEEDED BY AN ASTERISK (*) ARE NOT NWS OR FAA
     STATIONS AND ARE NOT SUBJECT TO NWS AND FAA QUALITY CONTROL.

CAZ041-042-087-280000-
LA AND ORANGE COUNTY COASTAL AREAS


CITY           SKY/WX    TMP DP  RH WIND       PRES   REMARKS
L.A. DOWNTOWN  SUNNY     70  50  49 VRB5      30.15R
L.A. AIRPORT   MOSUNNY   64  53  67 W15       30.16S
LONG BEACH     SUNNY     72  47  40 SW7       30.15R

CITY           SKY/WX    TMP DP  RH WIND       PRES   REMARKS
AVALON           N/A     68 N/A N/A MISG        N/A
FULLERTON      SUNNY     73  50  44 S8        30.13S
*GETTY CENTER    N/A    N/A N/A N/A SW9         N/A
HAWTHORNE      SUNNY     69  53  56 W10       30.16R
*LEO CARRILLO    N/A     66  54  66 W9          N/A
*LOS ALAMITOS  MOSUNNY   70  55  58 SW10      30.15R
*REDONDO BEACH   N/A     67  58  72 W1        30.17S
SANTA ANA      MOSUNNY   72  50  45 W7        30.14S
STA MONICA APT MOSUNNY   67  51  56 W9        30.16S
TORRANCE       MOSUNNY   68  59  73 W13       30.16S
*UCLA            N/A     68  48  49 SW6       30.13S

$$

CAZ547-548-048-280000-
LA COUNTY VALLEYS AND INLAND EMPIRE


CITY           SKY/WX    TMP DP  RH WIND       PRES   REMARKS
BURBANK        MOSUNNY   70  45  40 VRB3      30.14S
VAN NUYS       PTSUNNY   70  46  42 SW3       30.15S

CITY           SKY/WX    TMP DP  RH WIND       PRES   REMARKS
CORONA AIRPORT CLEAR     71  49  45 CALM      30.14F
CHINO          MOSUNNY   71  49  45 W7        30.15F
MARCH AFB      SUNNY     67  46  47 N1        30.15S
*NORTHRIDGE      N/A     70  43  37 S2          N/A
ONTARIO        MOSUNNY   70  47  43 SW6       30.14F
*PASADENA        N/A     70  48  46 E1          N/A
POMONA         SUNNY     68  63  83 CALM      30.17F
RIVERSIDE      MOSUNNY   70  49  47 W6        30.14S
SAN BERNARDINO MOSUNNY   68  43  40 S7        30.14F
*SAN GABRIEL     N/A     73  41  32 CALM      30.10F
*SAN RAFAEL HI   N/A     70  43  37 SE5         N/A
*SAUGUS          N/A     70  51  51 SW6         N/A
*WHITEMAN AP   MOSUNNY   68  45  42 SE5       30.18S
*WHITTIER HILL   N/A     71  47  41 W7          N/A
*WOODLAND HILL   N/A     68  43  40 S6          N/A

$$

CAZ054-055-280000-
LA AND SAN BERNARDINO COUNTY MOUNTAINS


CITY           SKY/WX    TMP DP  RH WIND       PRES   REMARKS
*ACTON           N/A     59  48  66 N7          N/A
*BIG BEAR AIRP CLEAR     46  28  49 W7        30.24S
*BIG PINES       N/A     42  34  74 CALM        N/A
MT WILSON NWS    N/A     59  45  58 MISG        N/A
SANDBERG       CLOUDY    49  44  83 CALM      30.22S

$$

CAZ028-029-059-060-099-280000-
ANTELOPE VALLEY AND SURROUNDING AREAS


CITY           SKY/WX    TMP DP  RH WIND       PRES   REMARKS
LANCASTER      CLOUDY    56  47  71 CALM      30.21S
PALMDALE       CLOUDY    57  46  66 N5        30.21S

CITY           SKY/WX    TMP DP  RH WIND       PRES   REMARKS
29 PALMS       PTSUNNY   59  50  72 CALM      30.26S
BARSTOW/DAGGET SUNNY     63  48  58 NE8       30.19S
BISHOP         CLOUDY    57  35  43 S6        30.16S
CHINA LAKE     PTSUNNY   61  46  57 S10       30.18S
EDWARDS AFB    PTSUNNY   58  48  70 CALM      30.18F
MOJAVE         PTSUNNY   54  46  76 CALM      30.21S
NEEDLES        SUNNY     68  51  54 CALM      30.18S
VICTORVILLE      N/A     57  46  67 N5        30.20S

$$

CAZ039-040-280000-
VENTURA AND SANTA BARBARA COUNTY COAST


CITY           SKY/WX    TMP DP  RH WIND       PRES   REMARKS
CAMARILLO      SUNNY     68  50  52 W13       30.16S
NWS OXNARD       N/A     68  51  53 CALM      30.16S
OXNARD AIRPORT SUNNY     66  52  60 W13       30.16S
*POINT MUGU    MOSUNNY   69  55  60 W13       30.17S
SBA APT/GOLETA MOSUNNY   67  53  61 SW8       30.17S
*SANTA BARBARA   N/A     71  50  46 CALM      30.24F
*VENTURA         N/A     71  48  43 SW6       30.20S

$$

CAZ044-045-280000-
VENTURA COUNTY VALLEYS


CITY           SKY/WX    TMP DP  RH WIND       PRES   REMARKS
*SIMI VALLEY     N/A     69  51  53 SW2       30.13S
*OJAI            N/A     67  52  59 CALM      30.12R

$$

CAZ053-280000-
VENTURA COUNTY MOUNTAINS


CITY           SKY/WX    TMP DP  RH WIND       PRES   REMARKS
*LOCKWOOD VLY    N/A     45  39  81 MISG        N/A

$$

CAZ034-035-036-280000-
CENTRAL COAST AND SANTA YNEZ VALLEY


CITY           SKY/WX    TMP DP  RH WIND       PRES   REMARKS
SAN LUIS OBISP PTSUNNY   68  48  48 SW7       30.17S
SANTA MARIA    MOSUNNY   68  53  58 SW10      30.17S

CITY           SKY/WX    TMP DP  RH WIND       PRES   REMARKS
*CAL POLY SLO    N/A     70  50  49 NE5G12      N/A
*LOMPOC        MOSUNNY   66  54  63 W9        30.18S
*PISMO BEACH     N/A     63  56  77 SW3       30.18S
*SANTA YNEZ    FAIR      64  50  59 W8        30.17S

$$

CAZ037-038-051-280000-
SAN LUIS OBISPO COUNTY INTERIOR AND CUYAMA VALLEY


CITY           SKY/WX    TMP DP  RH WIND       PRES   REMARKS
*CUYAMA          N/A     58  47  67 N6        30.14S
PASO ROBLES    CLOUDY    65  47  52 CALM      30.18F

$$

CAZ032-033-061-280000-
SOUTHERN DESERTS


CITY           SKY/WX    TMP DP  RH WIND       PRES   REMARKS
BLYTHE         SUNNY     68  57  68 W9        30.16F
IMPERIAL       CLOUDY    66  54  65 NW3       30.16F
PALM SPRINGS   SUNNY     69  50  50 E6        30.18F
THERMAL        SUNNY     70  53  54 SE6       30.15S

$$

ELSEWHERE ACROSS THE WESTERN UNITED STATES AND MEXICO


CITY           SKY/WX    TMP DP  RH WIND       PRES   REMARKS
DENVER, CO     MOSUNNY   66  31  27 NE12      30.02F
GRAND CANYON,  MOSUNNY   49  36  61 SW12G20   30.28F
HONOLULU, HI   PTSUNNY   79  61  53 E12       29.93F
KAHULUI, MAUI  MOSUNNY   81  61  50 E16G24    29.92F
LAKE TAHOE, CA CLOUDY    39  33  79 S3        30.25S
LAS VEGAS, NV  PTSUNNY   61  48  62 E6        30.15F
MAMMOTH LAKES, PTSUNNY   41  34  75 SE3       30.22S
MEXICO CITY, M SUNNY     73  34  23 N7        30.29F
PHOENIX, AZ    PTSUNNY   72  48  42 CALM      30.13F
PORTLAND, OR   CLOUDY    50  46  86 NE3       30.17R
RENO, NV       CLOUDY    51  31  46 NW8       30.19R
SALT LAKE CITY PTSUNNY   56  37  49 CALM      30.14F
SAN DIEGO, CA  MOSUNNY   68  53  58 NW10      30.16R
SAN FRANCISCO, PTSUNNY   66  47  50 S7        30.20R
SAN JOSE, CA   CLOUDY    67  43  41 NW7       30.19R
SEATTLE, WA    DRZL/FOG  51  49  92 SW5       30.11R VSB 1
TIJUANA, MEX   MOSUNNY   68  45  42 W10       30.16R

$$

STATION/POSITION TIME  TEMP    WIND        PRES    VSBY  WAVE
                       AIR SEA DIR/SP/G                  HT/PER
                 (UTC) (F)     (DEG/KT/KT) (MB)    (MI)  (FT/S)
POINT ARGUELLO B NOT AVBL
WEST SANTA BARBA 2300   62 62  210/  2/  4 1021.7R         7/14
POINT CONCEPTION NOT AVBL
EAST SANTA BARBA NOT AVBL
SANTA MONICA BAY 2300   62 63  270/  8/ 10 1021.9F         4/14


USA.gov is the U.S. government's official web portal to all federal, state and local government web resources and services.